TimePST,TemperatureF,Dew PointF,Humidity,Sea Level PressureIn,VisibilityMPH,Wind Direction,Wind SpeedMPH,Gust SpeedMPH,PrecipitationIn,Events,Conditions,WindDirDegrees,DateUTC
12:53 AM,39.9,39.0,97,30.25,3.0,Calm,Calm,-,N/A,,Clear,0,2013-02-16 08:53:00
1:00 AM,39.2,39.2,100,30.25,1.5,Calm,Calm,-,N/A,,Clear,0,2013-02-16 09:00:00
1:02 AM,39.2,39.2,100,30.25,0.8,Calm,Calm,-,N/A,,Mist,0,2013-02-16 09:02:00
1:18 AM,37.4,37.4,100,30.25,1.2,Calm,Calm,-,N/A,,Partly Cloudy,0,2013-02-16 09:18:00
1:28 AM,37.4,37.4,100,30.25,0.8,Calm,Calm,-,N/A,,Mist,0,2013-02-16 09:28:00
1:36 AM,37.4,37.4,100,30.25,1.0,Calm,Calm,-,N/A,,Mist,0,2013-02-16 09:36:00
1:44 AM,37.4,37.4,100,30.24,1.2,Calm,Calm,-,N/A,,Clear,0,2013-02-16 09:44:00
1:47 AM,37.4,37.4,100,30.24,3.0,Calm,Calm,-,N/A,,Clear,0,2013-02-16 09:47:00
1:53 AM,37.9,37.9,100,30.25,3.0,Calm,Calm,-,N/A,,Clear,0,2013-02-16 09:53:00
2:09 AM,39.2,39.2,100,30.24,1.8,South,3.5,-,N/A,,Clear,180,2013-02-16 10:09:00
2:21 AM,37.4,37.4,100,30.24,0.8,South,3.5,-,N/A,,Clear,180,2013-02-16 10:21:00
2:53 AM,37.9,37.0,97,30.24,0.8,SSE,3.5,-,N/A,,Clear,160,2013-02-16 10:53:00
2:59 AM,37.4,37.4,100,30.24,3.0,SSE,3.5,-,N/A,,Partly Cloudy,160,2013-02-16 10:59:00
3:09 AM,37.4,37.4,100,30.24,1.8,Calm,Calm,-,N/A,,Scattered Clouds,0,2013-02-16 11:09:00
3:15 AM,37.4,37.4,100,30.24,0.8,Calm,Calm,-,N/A,,Mostly Cloudy,0,2013-02-16 11:15:00
3:25 AM,37.4,37.4,100,30.24,2.0,Calm,Calm,-,N/A,,Mostly Cloudy,0,2013-02-16 11:25:00
3:34 AM,39.2,39.2,100,30.24,4.0,SSW,4.6,-,N/A,,Overcast,210,2013-02-16 11:34:00
3:41 AM,39.2,39.2,100,30.24,1.8,SSW,5.8,-,N/A,,Overcast,200,2013-02-16 11:41:00
3:53 AM,39.0,39.0,100,30.24,0.8,SSW,5.8,-,N/A,,Overcast,200,2013-02-16 11:53:00
4:08 AM,39.2,39.2,100,30.23,0.2,South,3.5,-,N/A,Fog,Fog,190,2013-02-16 12:08:00
4:53 AM,39.9,39.9,100,30.25,0.2,Calm,Calm,-,N/A,Fog,Fog,0,2013-02-16 12:53:00
5:35 AM,39.2,39.2,100,30.26,0.5,Calm,Calm,-,N/A,Fog,Fog,0,2013-02-16 13:35:00
5:53 AM,41.0,41.0,100,30.27,0.8,Calm,Calm,-,N/A,,Mist,0,2013-02-16 13:53:00
6:09 AM,41.0,41.0,100,30.27,1.0,Calm,Calm,-,N/A,,Mist,0,2013-02-16 14:09:00
6:19 AM,41.0,41.0,100,30.27,3.0,South,4.6,-,N/A,,Overcast,170,2013-02-16 14:19:00
6:53 AM,41.0,41.0,100,30.27,5.0,South,3.5,-,N/A,,Overcast,180,2013-02-16 14:53:00
7:23 AM,41.0,41.0,100,30.28,6.0,Calm,Calm,-,N/A,,Overcast,0,2013-02-16 15:23:00
7:53 AM,42.1,41.0,96,30.28,6.0,SE,4.6,-,N/A,,Overcast,140,2013-02-16 15:53:00
8:19 AM,42.8,42.8,100,30.28,7.0,SSE,3.5,-,N/A,,Overcast,150,2013-02-16 16:19:00
8:42 AM,42.8,42.8,100,30.28,7.0,South,3.5,-,N/A,,Overcast,190,2013-02-16 16:42:00
8:53 AM,43.0,43.0,100,30.29,10.0,SW,3.5,-,N/A,,Overcast,220,2013-02-16 16:53:00
9:34 AM,44.6,42.8,93,30.29,10.0,SW,6.9,-,N/A,,Overcast,230,2013-02-16 17:34:00
9:43 AM,44.6,42.8,93,30.29,10.0,SW,6.9,-,N/A,,Overcast,230,2013-02-16 17:43:00
9:53 AM,45.0,43.0,93,30.29,10.0,SW,5.8,-,N/A,,Overcast,220,2013-02-16 17:53:00
10:31 AM,46.4,42.8,87,30.29,10.0,SSW,5.8,-,N/A,,Overcast,210,2013-02-16 18:31:00
10:42 AM,46.4,42.8,87,30.29,10.0,SSW,5.8,-,N/A,,Overcast,210,2013-02-16 18:42:00
10:53 AM,46.9,43.0,86,30.29,10.0,SW,8.1,-,N/A,,Overcast,220,2013-02-16 18:53:00
11:21 AM,46.4,42.8,87,30.29,10.0,SSW,6.9,-,N/A,,Overcast,200,2013-02-16 19:21:00
11:53 AM,48.9,44.1,83,30.29,10.0,SSW,9.2,-,N/A,,Overcast,210,2013-02-16 19:53:00
12:53 PM,48.9,43.0,80,30.27,10.0,SW,8.1,-,0.00,Rain,Light Rain,220,2013-02-16 20:53:00
1:03 PM,51.8,44.6,76,30.26,10.0,SW,10.4,-,0.00,,Overcast,230,2013-02-16 21:03:00
1:53 PM,48.0,44.1,86,30.25,9.0,WSW,4.6,-,0.03,Rain,Light Rain,240,2013-02-16 21:53:00
2:37 PM,51.8,42.8,71,30.24,10.0,WSW,6.9,-,0.00,,Overcast,250,2013-02-16 22:37:00
2:53 PM,51.1,42.1,71,30.25,10.0,WSW,8.1,-,0.00,,Overcast,250,2013-02-16 22:53:00
3:53 PM,51.1,37.0,59,30.25,10.0,WSW,11.5,21.9,N/A,,Scattered Clouds,250,2013-02-16 23:53:00
4:53 PM,50.0,37.9,63,30.25,10.0,West,4.6,-,N/A,,Mostly Cloudy,270,2013-02-17 00:53:00
5:53 PM,46.0,37.0,71,30.26,10.0,West,6.9,-,N/A,,Clear,260,2013-02-17 01:53:00
6:53 PM,44.1,37.0,76,30.27,10.0,WSW,4.6,-,N/A,,Clear,250,2013-02-17 02:53:00
7:53 PM,42.1,37.0,82,30.28,10.0,Calm,Calm,-,N/A,,Overcast,0,2013-02-17 03:53:00
8:53 PM,42.1,37.0,82,30.30,10.0,Calm,Calm,-,N/A,,Mostly Cloudy,0,2013-02-17 04:53:00
9:53 PM,37.9,36.0,93,30.30,10.0,Calm,Calm,-,N/A,,Scattered Clouds,0,2013-02-17 05:53:00
10:53 PM,37.9,36.0,93,30.30,10.0,Calm,Calm,-,N/A,,Scattered Clouds,0,2013-02-17 06:53:00
11:53 PM,37.0,35.1,93,30.30,10.0,Calm,Calm,-,N/A,,Scattered Clouds,0,2013-02-17 07:53:00